CMM625 SKBQ-SEQM

Flight info

Callsign CMM625
Flight time 1h 44m
Altitude 35000
Route UGREB2E UGREB DCT AKPEK DCT BUN DCT BOKAN UP533 QIT
Aircraft A320/M-SDE3FGHIRWY/LB1

Departure

Time 2026-04-29 23:01
Airport Ernesto Cortissoz International Airport (SKBQ)

Arrival

Time 2026-04-30 00:45
Airport Mariscal Sucre International Airport (SEQM)
Time Latitude Longitude Altitude Speed Heading
2026-04-29 22:45 10.88823 -74.77652 86 ft 0 kts 130°
2026-04-29 22:49 10.88838 -74.77670 83 ft 4 kts 133°
2026-04-29 22:50 10.88858 -74.77688 86 ft 4 kts 149°
2026-04-29 22:50 10.88880 -74.77696 85 ft 4 kts 206°
2026-04-29 22:50 10.88885 -74.77693 85 ft 0 kts 220°
2026-04-29 22:52 10.88884 -74.77693 85 ft 0 kts 220°
2026-04-29 22:52 10.88877 -74.77700 85 ft 3 kts 220°
2026-04-29 22:52 10.88847 -74.77725 83 ft 8 kts 220°
2026-04-29 22:52 10.88786 -74.77777 84 ft 15 kts 219°
2026-04-29 22:53 10.88693 -74.77858 84 ft 20 kts 220°
2026-04-29 22:53 10.88584 -74.77950 86 ft 20 kts 220°
2026-04-29 22:53 10.88475 -74.78043 90 ft 21 kts 220°
2026-04-29 22:53 10.88424 -74.78169 92 ft 21 kts 283°
2026-04-29 22:54 10.88425 -74.78295 93 ft 17 kts 232°
2026-04-29 22:54 10.88333 -74.78374 93 ft 18 kts 219°
2026-04-29 22:54 10.88236 -74.78454 95 ft 18 kts 219°
2026-04-29 22:54 10.88141 -74.78537 97 ft 16 kts 220°
2026-04-29 22:55 10.88083 -74.78586 100 ft 9 kts 220°
2026-04-29 22:55 10.88033 -74.78629 99 ft 10 kts 220°
2026-04-29 22:55 10.87980 -74.78674 100 ft 10 kts 220°
2026-04-29 22:55 10.87926 -74.78724 101 ft 11 kts 234°
2026-04-29 22:56 10.87912 -74.78797 102 ft 11 kts 265°
2026-04-29 22:56 10.87909 -74.78840 102 ft 0 kts 266°
2026-04-29 22:58 10.87909 -74.78845 102 ft 1 kts 266°
2026-04-29 22:59 10.87908 -74.78859 103 ft 2 kts 267°
2026-04-29 22:59 10.87907 -74.78880 103 ft 4 kts 268°
2026-04-29 22:59 10.87909 -74.78908 104 ft 5 kts 281°
2026-04-29 22:59 10.87920 -74.78943 104 ft 5 kts 297°
2026-04-29 23:00 10.87964 -74.78943 103 ft 13 kts 29°
2026-04-29 23:00 10.88153 -74.78782 101 ft 67 kts 40°
2026-04-29 23:00 10.88660 -74.78343 89 ft 122 kts 40°
2026-04-29 23:00 10.89424 -74.77688 122 ft 159 kts 40°
2026-04-29 23:01 10.90238 -74.76983 780 ft 151 kts 40°
2026-04-29 23:01 10.91161 -74.76505 1349 ft 153 kts
2026-04-29 23:01 10.92163 -74.76888 1787 ft 168 kts 317°
2026-04-29 23:01 10.92564 -74.77617 1898 ft 192 kts 285°
2026-04-29 23:02 10.92368 -74.79027 2165 ft 219 kts 242°
2026-04-29 23:02 10.90819 -74.80592 2412 ft 260 kts 218°
2026-04-29 23:02 10.89306 -74.81787 2738 ft 289 kts 216°
2026-04-29 23:02 10.88147 -74.82577 3021 ft 305 kts 209°
2026-04-29 23:03 10.86160 -74.83514 3457 ft 325 kts 198°
2026-04-29 23:03 10.84018 -74.84182 4282 ft 327 kts 195°
2026-04-29 23:03 10.81826 -74.84857 5144 ft 331 kts 196°
2026-04-29 23:03 10.79610 -74.85543 5968 ft 334 kts 196°
2026-04-29 23:04 10.77372 -74.86235 6761 ft 338 kts 196°
2026-04-29 23:04 10.75106 -74.86936 7535 ft 342 kts 196°
2026-04-29 23:04 10.72813 -74.87644 8287 ft 346 kts 196°
2026-04-29 23:04 10.70498 -74.88362 9026 ft 349 kts 196°
2026-04-29 23:05 10.68161 -74.89088 9730 ft 353 kts 196°
2026-04-29 23:05 10.65804 -74.89821 10431 ft 356 kts 196°
2026-04-29 23:05 10.63424 -74.90560 11103 ft 360 kts 196°
2026-04-29 23:05 10.61018 -74.91308 11767 ft 363 kts 196°
2026-04-29 23:06 10.58593 -74.92061 12417 ft 366 kts 196°
2026-04-29 23:06 10.56142 -74.92820 13056 ft 370 kts 196°
2026-04-29 23:06 10.53670 -74.93584 13684 ft 373 kts 196°
2026-04-29 23:06 10.51208 -74.94345 14287 ft 376 kts 196°
2026-04-29 23:07 10.48691 -74.95121 14869 ft 379 kts 196°
2026-04-29 23:07 10.46151 -74.95903 15445 ft 383 kts 196°
2026-04-29 23:07 10.43594 -74.96688 16002 ft 386 kts 196°
2026-04-29 23:07 10.41015 -74.97482 16554 ft 389 kts 196°
2026-04-29 23:08 10.38416 -74.98286 17105 ft 392 kts 196°
2026-04-29 23:08 10.35796 -74.99098 17652 ft 395 kts 196°
2026-04-29 23:08 10.33157 -74.99918 18199 ft 398 kts 196°
2026-04-29 23:08 10.30494 -75.00742 18750 ft 402 kts 196°
2026-04-29 23:09 10.27813 -75.01572 19300 ft 405 kts 196°
2026-04-29 23:09 10.25107 -75.02411 19850 ft 408 kts 196°
2026-04-29 23:09 10.22379 -75.03256 20384 ft 411 kts 196°
2026-04-29 23:09 10.19631 -75.04107 20900 ft 414 kts 196°
2026-04-29 23:10 10.16877 -75.04958 21390 ft 417 kts 196°
2026-04-29 23:10 10.14065 -75.05826 21860 ft 420 kts 196°
2026-04-29 23:10 10.11290 -75.06682 22315 ft 423 kts 196°
2026-04-29 23:10 10.08463 -75.07555 22764 ft 426 kts 196°
2026-04-29 23:11 10.05612 -75.08436 23197 ft 429 kts 196°
2026-04-29 23:11 10.02743 -75.09320 23619 ft 431 kts 196°
2026-04-29 23:11 9.99866 -75.10208 24030 ft 434 kts 196°
2026-04-29 23:11 9.96951 -75.11105 24426 ft 437 kts 196°
2026-04-29 23:12 9.94064 -75.11992 24807 ft 439 kts 196°
2026-04-29 23:12 9.91134 -75.12891 25180 ft 441 kts 196°
2026-04-29 23:12 9.88164 -75.13806 25551 ft 444 kts 196°
2026-04-29 23:12 9.85206 -75.14719 25900 ft 446 kts 196°
2026-04-29 23:13 9.82220 -75.15642 26245 ft 448 kts 196°
2026-04-29 23:13 9.79234 -75.16564 26580 ft 451 kts 196°
2026-04-29 23:13 9.76218 -75.17495 26917 ft 453 kts 196°
2026-04-29 23:13 9.73224 -75.18419 27247 ft 455 kts 196°
2026-04-29 23:14 9.70178 -75.19360 27603 ft 457 kts 196°
2026-04-29 23:14 9.67142 -75.20297 27936 ft 459 kts 196°
2026-04-29 23:14 9.64071 -75.21240 28247 ft 461 kts 196°
2026-04-29 23:14 9.61019 -75.22177 28551 ft 463 kts 196°
2026-04-29 23:15 9.57927 -75.23125 28850 ft 465 kts 196°
2026-04-29 23:15 9.54821 -75.24079 29167 ft 466 kts 196°
2026-04-29 23:15 9.51704 -75.25037 29593 ft 465 kts 196°
2026-04-29 23:15 9.48601 -75.25992 30020 ft 464 kts 196°
2026-04-29 23:16 9.45527 -75.26941 30421 ft 463 kts 196°
2026-04-29 23:16 9.42446 -75.27891 30825 ft 462 kts 196°
2026-04-29 23:16 9.39370 -75.28837 31218 ft 462 kts 196°
2026-04-29 23:16 9.36300 -75.29780 31609 ft 461 kts 196°
2026-04-29 23:17 9.33233 -75.30723 31998 ft 460 kts 196°
2026-04-29 23:17 9.30172 -75.31665 32384 ft 459 kts 196°
2026-04-29 23:17 9.27115 -75.32604 32767 ft 459 kts 196°
2026-04-29 23:17 9.24062 -75.33542 33147 ft 458 kts 196°
2026-04-29 23:18 9.21018 -75.34477 33527 ft 457 kts 196°
2026-04-29 23:18 9.17976 -75.35413 33892 ft 456 kts 196°
2026-04-29 23:18 9.14938 -75.36346 34246 ft 456 kts 196°
2026-04-29 23:18 9.11907 -75.37275 34575 ft 455 kts 196°
2026-04-29 23:19 9.08872 -75.38206 34772 ft 456 kts 196°
2026-04-29 23:19 9.05822 -75.39141 34813 ft 461 kts 196°
2026-04-29 23:19 8.99639 -75.41034 34820 ft 466 kts 196°
2026-04-29 23:20 8.93432 -75.42943 34813 ft 466 kts 196°
2026-04-29 23:20 8.87217 -75.44853 34811 ft 466 kts 196°
2026-04-29 23:21 8.81047 -75.46742 34815 ft 466 kts 196°
2026-04-29 23:21 8.74821 -75.48651 34815 ft 466 kts 196°
2026-04-29 23:22 8.68627 -75.50547 34813 ft 466 kts 196°
2026-04-29 23:22 8.62402 -75.52456 34816 ft 466 kts 196°
2026-04-29 23:23 8.56196 -75.54362 34811 ft 466 kts 196°
2026-04-29 23:23 8.49991 -75.56264 34807 ft 466 kts 196°
2026-04-29 23:24 8.43795 -75.58158 34811 ft 466 kts 196°
2026-04-29 23:24 8.37560 -75.60056 34818 ft 466 kts 196°
2026-04-29 23:25 8.31372 -75.61947 34817 ft 467 kts 196°
2026-04-29 23:25 8.25167 -75.63847 34814 ft 467 kts 196°
2026-04-29 23:26 8.18939 -75.65747 34817 ft 467 kts 196°
2026-04-29 23:26 8.12742 -75.67643 34818 ft 467 kts 196°
2026-04-29 23:27 8.06502 -75.69551 34830 ft 467 kts 196°
2026-04-29 23:27 8.00272 -75.71447 34823 ft 467 kts 196°
2026-04-29 23:28 7.94086 -75.73328 34824 ft 467 kts 196°
2026-04-29 23:28 7.87865 -75.75230 34814 ft 467 kts 196°
2026-04-29 23:29 7.81653 -75.77127 34824 ft 467 kts 196°
2026-04-29 23:29 7.75422 -75.79024 34830 ft 467 kts 196°
2026-04-29 23:30 7.69188 -75.80926 34828 ft 467 kts 196°
2026-04-29 23:30 7.62977 -75.82823 34816 ft 467 kts 196°
2026-04-29 23:31 7.56770 -75.84716 34831 ft 467 kts 196°
2026-04-29 23:31 7.50557 -75.86604 34830 ft 467 kts 196°
2026-04-29 23:32 7.44338 -75.88494 34819 ft 467 kts 196°
2026-04-29 23:32 7.38118 -75.90386 34821 ft 466 kts 196°
2026-04-29 23:33 7.31945 -75.92260 34828 ft 466 kts 196°
2026-04-29 23:33 7.25739 -75.94154 34817 ft 466 kts 196°
2026-04-29 23:34 7.19529 -75.96047 34825 ft 466 kts 196°
2026-04-29 23:34 7.13322 -75.97933 34821 ft 466 kts 196°
2026-04-29 23:35 7.07110 -75.99811 34812 ft 466 kts 196°
2026-04-29 23:35 7.00896 -76.01696 34818 ft 466 kts 196°
2026-04-29 23:36 6.94682 -76.03590 34819 ft 466 kts 196°
2026-04-29 23:36 6.88452 -76.05486 34829 ft 466 kts 196°
2026-04-29 23:37 6.82221 -76.07371 34824 ft 467 kts 196°
2026-04-29 23:37 6.76007 -76.09259 34830 ft 467 kts 196°
2026-04-29 23:38 6.69824 -76.11132 34823 ft 467 kts 196°
2026-04-29 23:38 6.63601 -76.13020 34817 ft 467 kts 196°
2026-04-29 23:39 6.57381 -76.14908 34825 ft 466 kts 196°
2026-04-29 23:39 6.51166 -76.16789 34826 ft 466 kts 196°
2026-04-29 23:40 6.44954 -76.18671 34821 ft 466 kts 196°
2026-04-29 23:40 6.38738 -76.20556 34825 ft 466 kts 196°
2026-04-29 23:41 6.32567 -76.22429 34821 ft 466 kts 196°
2026-04-29 23:41 6.26355 -76.24312 34826 ft 466 kts 196°
2026-04-29 23:42 6.20136 -76.26193 34823 ft 466 kts 196°
2026-04-29 23:42 6.13923 -76.28072 34813 ft 466 kts 196°
2026-04-29 23:43 6.07709 -76.29943 34827 ft 466 kts 196°
2026-04-29 23:43 6.01542 -76.31811 34816 ft 466 kts 196°
2026-04-29 23:44 5.95334 -76.33695 34818 ft 466 kts 196°
2026-04-29 23:44 5.89124 -76.35570 34824 ft 466 kts 196°
2026-04-29 23:45 5.82913 -76.37443 34819 ft 466 kts 196°
2026-04-29 23:45 5.76702 -76.39323 34819 ft 466 kts 196°
2026-04-29 23:46 5.70496 -76.41205 34819 ft 466 kts 196°
2026-04-29 23:46 5.64287 -76.43078 34823 ft 466 kts 196°
2026-04-29 23:47 5.58080 -76.44948 34823 ft 466 kts 196°
2026-04-29 23:47 5.51870 -76.46817 34818 ft 466 kts 196°
2026-04-29 23:48 5.46734 -76.48371 34817 ft 466 kts 196°
2026-04-29 23:48 5.39481 -76.50564 34816 ft 466 kts 196°
2026-04-29 23:49 5.33275 -76.52438 34827 ft 466 kts 196°
2026-04-29 23:49 5.28105 -76.53998 34830 ft 467 kts 196°
2026-04-29 23:50 5.21886 -76.55873 34821 ft 467 kts 196°
2026-04-29 23:51 5.12546 -76.58695 34831 ft 467 kts 196°
2026-04-29 23:51 5.06328 -76.60563 34822 ft 466 kts 196°
2026-04-29 23:52 5.00117 -76.62438 34817 ft 466 kts 196°
2026-04-29 23:52 4.93940 -76.64295 34831 ft 466 kts 196°
2026-04-29 23:53 4.87732 -76.66166 34830 ft 467 kts 196°
2026-04-29 23:53 4.81505 -76.68051 34831 ft 467 kts 196°
2026-04-29 23:54 4.75256 -76.69933 34832 ft 467 kts 196°
2026-04-29 23:54 4.69067 -76.71793 34833 ft 467 kts 196°
2026-04-29 23:55 4.62813 -76.73673 34833 ft 467 kts 196°
2026-04-29 23:55 4.56616 -76.75544 34833 ft 467 kts 196°
2026-04-29 23:56 4.50409 -76.77410 34831 ft 467 kts 196°
2026-04-29 23:56 4.44173 -76.79284 34830 ft 466 kts 196°
2026-04-29 23:57 4.37976 -76.81154 34818 ft 466 kts 196°
2026-04-29 23:57 4.31760 -76.83023 34821 ft 466 kts 196°
2026-04-29 23:58 4.25548 -76.84877 34823 ft 466 kts 196°
2026-04-29 23:58 4.19336 -76.86750 34824 ft 466 kts 196°
2026-04-29 23:59 4.13164 -76.88616 34824 ft 466 kts 196°
2026-04-29 23:59 4.06953 -76.90485 34816 ft 466 kts 196°
2026-04-30 00:00 4.00746 -76.92346 34817 ft 466 kts 196°
2026-04-30 00:00 3.94535 -76.94207 34826 ft 466 kts 196°
2026-04-30 00:01 3.88329 -76.96074 34825 ft 466 kts 196°
2026-04-30 00:01 3.82113 -76.97943 34823 ft 465 kts 196°
2026-04-30 00:02 3.75929 -76.99803 34820 ft 466 kts 196°
2026-04-30 00:02 3.69718 -77.01666 34815 ft 466 kts 196°
2026-04-30 00:03 3.63506 -77.03522 34814 ft 466 kts 196°
2026-04-30 00:03 3.57306 -77.05378 34817 ft 466 kts 196°
2026-04-30 00:04 3.51092 -77.07242 34827 ft 466 kts 196°
2026-04-30 00:04 3.44894 -77.09106 34818 ft 466 kts 196°
2026-04-30 00:05 3.38717 -77.10955 34824 ft 466 kts 196°
2026-04-30 00:05 3.32502 -77.12809 34831 ft 466 kts 196°
2026-04-30 00:06 3.26269 -77.14674 34830 ft 467 kts 196°
2026-04-30 00:06 3.20037 -77.16547 34832 ft 467 kts 196°
2026-04-30 00:07 3.13835 -77.18404 34831 ft 466 kts 196°
2026-04-30 00:07 3.07618 -77.20260 34825 ft 466 kts 196°
2026-04-30 00:08 3.01407 -77.22124 34830 ft 466 kts 196°
2026-04-30 00:08 2.95195 -77.23992 34819 ft 466 kts 196°
2026-04-30 00:09 2.89008 -77.25845 34828 ft 466 kts 196°
2026-04-30 00:09 2.82800 -77.27702 34827 ft 466 kts 196°
2026-04-30 00:10 2.76568 -77.29562 34825 ft 466 kts 196°
2026-04-30 00:10 2.70393 -77.31411 34830 ft 466 kts 196°
2026-04-30 00:11 2.64160 -77.33273 34824 ft 466 kts 196°
2026-04-30 00:11 2.57981 -77.35118 34816 ft 465 kts 196°
2026-04-30 00:12 2.51783 -77.36975 34819 ft 465 kts 196°
2026-04-30 00:12 2.45559 -77.38842 34821 ft 465 kts 196°
2026-04-30 00:13 2.39351 -77.40708 34821 ft 465 kts 196°
2026-04-30 00:13 2.33161 -77.42558 34824 ft 465 kts 196°
2026-04-30 00:14 2.26964 -77.44400 34825 ft 465 kts 195°
2026-04-30 00:14 2.20766 -77.46248 34828 ft 466 kts 196°
2026-04-30 00:15 2.14563 -77.48106 34825 ft 466 kts 196°
2026-04-30 00:15 2.08368 -77.49958 34818 ft 465 kts 196°
2026-04-30 00:16 2.02168 -77.51814 34821 ft 465 kts 196°
2026-04-30 00:16 1.95943 -77.53680 34823 ft 465 kts 196°
2026-04-30 00:17 1.89744 -77.55535 34819 ft 465 kts 196°
2026-04-30 00:17 1.83535 -77.57391 34821 ft 465 kts 196°
2026-04-30 00:18 1.77343 -77.59232 34826 ft 465 kts 196°
2026-04-30 00:18 1.71164 -77.61079 34826 ft 465 kts 196°
2026-04-30 00:19 1.64944 -77.62937 34820 ft 465 kts 196°
2026-04-30 00:19 1.58749 -77.64786 34823 ft 465 kts 196°
2026-04-30 00:20 1.52548 -77.66643 34828 ft 466 kts 196°
2026-04-30 00:20 1.46340 -77.68498 34831 ft 466 kts 196°
2026-04-30 00:21 1.40140 -77.70349 34815 ft 466 kts 196°
2026-04-30 00:21 1.33945 -77.72200 34830 ft 465 kts 196°
2026-04-30 00:22 1.27755 -77.74046 34829 ft 465 kts 196°
2026-04-30 00:22 1.21546 -77.75900 34815 ft 465 kts 196°
2026-04-30 00:23 1.15358 -77.77748 34822 ft 465 kts 196°
2026-04-30 00:23 1.09156 -77.79603 34818 ft 465 kts 196°
2026-04-30 00:24 1.02948 -77.81454 34812 ft 465 kts 196°
2026-04-30 00:24 0.96762 -77.83305 34809 ft 465 kts 196°
2026-04-30 00:25 0.90539 -77.85164 34816 ft 465 kts 196°
2026-04-30 00:25 0.84371 -77.87004 34821 ft 465 kts 197°
2026-04-30 00:26 0.78548 -77.89781 34826 ft 466 kts 215°
2026-04-30 00:26 0.73351 -77.93643 34826 ft 466 kts 217°
2026-04-30 00:27 0.68146 -77.97521 34814 ft 466 kts 217°
2026-04-30 00:27 0.62943 -78.01395 34818 ft 466 kts 217°
2026-04-30 00:28 0.57723 -78.05283 33918 ft 472 kts 217°
2026-04-30 00:28 0.55069 -78.07256 32672 ft 483 kts 216°
2026-04-30 00:28 0.52365 -78.09265 31895 ft 482 kts 217°
2026-04-30 00:28 0.49697 -78.11251 31392 ft 475 kts 217°
2026-04-30 00:29 0.47051 -78.13223 30784 ft 471 kts 217°
2026-04-30 00:29 0.44432 -78.15177 30195 ft 468 kts 217°
2026-04-30 00:29 0.41834 -78.17114 29600 ft 464 kts 217°
2026-04-30 00:29 0.39253 -78.19037 29012 ft 461 kts 217°
2026-04-30 00:30 0.36694 -78.20941 28429 ft 457 kts 216°
2026-04-30 00:30 0.34151 -78.22831 27853 ft 453 kts 216°
2026-04-30 00:30 0.31635 -78.24701 27282 ft 449 kts 216°
2026-04-30 00:30 0.29171 -78.26533 26728 ft 446 kts 217°
2026-04-30 00:31 0.26694 -78.28380 26178 ft 442 kts 217°
2026-04-30 00:31 0.24242 -78.30209 25629 ft 438 kts 217°
2026-04-30 00:31 0.21811 -78.32022 25116 ft 434 kts 217°
2026-04-30 00:31 0.19397 -78.33819 24609 ft 430 kts 217°
2026-04-30 00:32 0.17011 -78.35596 24114 ft 426 kts 217°
2026-04-30 00:32 0.14641 -78.37361 23628 ft 422 kts 217°
2026-04-30 00:32 0.12295 -78.39105 23150 ft 419 kts 216°
2026-04-30 00:32 0.09962 -78.40836 22680 ft 416 kts 216°
2026-04-30 00:33 0.07644 -78.42559 22197 ft 414 kts 217°
2026-04-30 00:33 0.05337 -78.44279 21711 ft 413 kts 217°
2026-04-30 00:33 0.03070 -78.45972 21229 ft 412 kts 217°
2026-04-30 00:33 0.00777 -78.47682 20718 ft 410 kts 217°
2026-04-30 00:34 -0.01606 -78.49237 20211 ft 408 kts 206°
2026-04-30 00:34 -0.04246 -78.50239 19788 ft 403 kts 192°
2026-04-30 00:34 -0.06972 -78.50624 19693 ft 387 kts 180°
2026-04-30 00:34 -0.09602 -78.50508 19589 ft 372 kts 172°
2026-04-30 00:35 -0.12161 -78.50242 19187 ft 369 kts 172°
2026-04-30 00:35 -0.14710 -78.49982 18685 ft 368 kts 173°
2026-04-30 00:35 -0.17266 -78.49756 18202 ft 368 kts 174°
2026-04-30 00:35 -0.19787 -78.49563 18019 ft 357 kts 174°
2026-04-30 00:36 -0.22235 -78.49389 17883 ft 347 kts 174°
2026-04-30 00:36 -0.24622 -78.49218 17605 ft 342 kts 174°
2026-04-30 00:36 -0.27017 -78.49038 16805 ft 352 kts 174°
2026-04-30 00:36 -0.29447 -78.48847 15911 ft 356 kts 174°
2026-04-30 00:37 -0.31857 -78.48660 15612 ft 337 kts 174°
2026-04-30 00:37 -0.34125 -78.48484 15470 ft 316 kts 173°
2026-04-30 00:37 -0.36207 -78.48110 15311 ft 295 kts 158°
2026-04-30 00:37 -0.38009 -78.47222 14849 ft 285 kts 144°
2026-04-30 00:38 -0.39602 -78.46087 14463 ft 277 kts 137°
2026-04-30 00:38 -0.40999 -78.44807 14075 ft 269 kts 130°
2026-04-30 00:38 -0.42153 -78.43386 13733 ft 257 kts 112°
2026-04-30 00:38 -0.42464 -78.41731 13456 ft 237 kts 77°
2026-04-30 00:39 -0.41820 -78.40285 13246 ft 224 kts 47°
2026-04-30 00:39 -0.40574 -78.39441 12972 ft 220 kts 22°
2026-04-30 00:39 -0.39164 -78.38859 12664 ft 218 kts 25°
2026-04-30 00:39 -0.37797 -78.38233 12382 ft 214 kts 26°
2026-04-30 00:40 -0.36461 -78.37604 12112 ft 211 kts 26°
2026-04-30 00:40 -0.35584 -78.37191 11930 ft 208 kts 26°
2026-04-30 00:40 -0.33843 -78.36378 11572 ft 204 kts 26°
2026-04-30 00:40 -0.32996 -78.35986 11395 ft 202 kts 26°
2026-04-30 00:41 -0.31730 -78.35403 11136 ft 198 kts 26°
2026-04-30 00:41 -0.30468 -78.34881 10876 ft 195 kts 16°
2026-04-30 00:41 -0.29130 -78.34758 10625 ft 193 kts
2026-04-30 00:41 -0.27798 -78.34790 10369 ft 189 kts
2026-04-30 00:42 -0.26498 -78.34841 10181 ft 183 kts
2026-04-30 00:42 -0.25272 -78.34894 10110 ft 170 kts
2026-04-30 00:42 -0.24112 -78.34943 9940 ft 164 kts
2026-04-30 00:42 -0.22984 -78.34991 9727 ft 158 kts
2026-04-30 00:43 -0.21891 -78.35037 9522 ft 156 kts
2026-04-30 00:43 -0.20820 -78.35083 9310 ft 155 kts
2026-04-30 00:43 -0.19742 -78.35129 9097 ft 155 kts
2026-04-30 00:43 -0.18667 -78.35174 8876 ft 154 kts
2026-04-30 00:44 -0.17600 -78.35220 8652 ft 153 kts
2026-04-30 00:44 -0.16531 -78.35266 8440 ft 154 kts
2026-04-30 00:44 -0.15459 -78.35311 8221 ft 154 kts 360°
2026-04-30 00:44 -0.14390 -78.35356 8028 ft 154 kts 360°
2026-04-30 00:45 -0.13407 -78.35397 7993 ft 120 kts 357°
2026-04-30 00:45 -0.12743 -78.35426 7993 ft 71 kts 358°
2026-04-30 00:45 -0.12391 -78.35439 7986 ft 40 kts 358°
2026-04-30 00:45 -0.12153 -78.35451 7993 ft 29 kts 357°
2026-04-30 00:46 -0.11966 -78.35460 7987 ft 26 kts 358°
2026-04-30 00:46 -0.11791 -78.35486 7991 ft 25 kts 338°
2026-04-30 00:46 -0.11643 -78.35567 7989 ft 24 kts 324°
2026-04-30 00:46 -0.11646 -78.35645 7986 ft 12 kts 195°
2026-04-30 00:47 -0.11736 -78.35643 7986 ft 13 kts 176°
2026-04-30 00:47 -0.11827 -78.35637 7986 ft 13 kts 176°
2026-04-30 00:47 -0.11921 -78.35634 7985 ft 14 kts 178°
2026-04-30 00:47 -0.12016 -78.35630 7985 ft 14 kts 177°
2026-04-30 00:48 -0.12116 -78.35625 7985 ft 14 kts 177°
2026-04-30 00:48 -0.12218 -78.35620 7985 ft 15 kts 178°
2026-04-30 00:48 -0.12323 -78.35619 7985 ft 15 kts 187°
2026-04-30 00:48 -0.12360 -78.35708 7994 ft 16 kts 268°
2026-04-30 00:49 -0.12367 -78.35813 7984 ft 13 kts 253°
2026-04-30 00:49 -0.12433 -78.35853 7987 ft 11 kts 242°
2026-04-30 00:49 -0.12433 -78.35919 7984 ft 6 kts 267°
2026-04-30 00:49 -0.12434 -78.35929 7984 ft 0 kts 267°